Location: Newark
(41.6500°N, 71.4833°W)
Time: 01:08:51
(UTC+00:00)

Transit 2A Rocket - Pass Details

Date: 31 January 2020
Orbit: 591 x 912 km, 66.7° (Epoch: 27 February)

Event Time Altitude Azimuth Distance (km) Brightness Sun altitude
Rises 16:56:53 0° 333° (NNW) 3,037 7.6 31.0°
Reaches altitude 10° 16:59:10 10° 337° (NNW) 2,165 6.9 31.0°
Maximum altitude 17:04:02 58° 57° (ENE) 868 5.5 30.9°
Drops below altitude 10° 17:09:22 10° 137° (SE) 2,365 8.3 30.9°
Sets 17:11:56 0° 141° (SE) 3,343 8.9 30.9°
